Location: Unspecified
(47.3686°N, 0.0000°E)
Time: 03:47:43
(UTC+00:00)

Vanguard 1 Rocket - All Passes

Search period start: 04 April 2026 00:00
Search period end: 14 April 2026 00:00
Orbit: 654 x 4213 km, 34.3° (Epoch: 28 March)

Date Brightness Start Highest point End Pass type
(mag) Time Alt. Az. Time Alt. Az. Time Alt. Az.
4 Apr - 01:00:47 10° SW 01:18:16 38° SSE 01:28:24 10° ESE visible
4 Apr - 03:31:06 10° WSW 03:44:40 40° S 03:52:07 10° ESE visible
4 Apr - 06:02:07 10° WSW 06:08:54 21° SSW 06:13:33 10° SSE daylight
4 Apr - 21:25:46 10° SSE 21:36:28 15° SE 21:45:26 10° ESE visible
4 Apr - 23:46:03 10° SSW 00:04:25 33° SSE 00:16:01 10° E visible
5 Apr - 02:15:13 10° WSW 02:31:45 44° S 02:40:45 10° ESE visible
5 Apr - 04:46:28 10° W 04:57:06 32° SSW 05:03:22 10° SE visible
5 Apr - 22:32:32 10° SSW 22:50:17 27° SSE 23:02:48 10° E visible
6 Apr - 00:59:25 10° SW 01:18:16 43° S 01:29:00 10° ESE visible
6 Apr - 03:30:33 10° WSW 03:44:46 41° SSW 03:52:32 10° SE visible
6 Apr - 06:02:22 10° WSW 06:08:48 19° SW 06:13:22 10° S daylight
6 Apr - 21:21:01 10° S 21:36:02 20° SE 21:48:03 10° ESE visible
6 Apr - 23:44:12 10° SW 00:04:17 39° SSE 00:16:44 10° E visible
7 Apr - 02:14:22 10° WSW 02:31:48 46° S 02:41:14 10° ESE visible
7 Apr - 04:46:14 10° W 04:57:06 30° SSW 05:03:34 10° SSE visible
7 Apr - 20:13:59 10° SSE 20:21:57 12° SE 20:29:15 10° ESE visible
7 Apr - 22:30:04 10° SSW 22:49:57 33° SSE 23:03:44 10° E visible
8 Apr - 00:58:14 10° WSW 01:18:13 47° S 01:29:31 10° ESE visible
8 Apr - 03:30:02 10° W 03:44:47 41° SSW 03:52:53 10° SE visible
8 Apr - 06:02:50 10° WSW 06:08:35 16° SW 06:12:53 10° S daylight
8 Apr - 21:17:34 10° S 21:35:32 25° SE 21:49:36 10° E visible
8 Apr - 23:42:39 10° SW 00:04:06 43° SSE 00:17:18 10° E visible
9 Apr - 02:13:36 10° WSW 02:31:48 47° S 02:41:39 10° ESE visible
9 Apr - 04:46:04 10° W 04:56:58 28° SW 05:03:37 10° SSE visible
9 Apr - 20:07:47 10° SSE 20:21:16 17° SE 20:33:11 10° ESE visible
9 Apr - 22:28:03 10° SSW 22:49:35 38° SSE 23:04:26 10° E visible
10 Apr - 00:57:13 10° WSW 01:18:08 50° S 01:29:57 10° ESE visible
10 Apr - 03:29:33 10° W 03:44:43 39° SSW 03:53:08 10° SE visible
10 Apr - 06:03:41 10° WSW 06:08:16 13° SW 06:11:55 10° SSW daylight
10 Apr - 21:14:54 10° SSW 21:34:57 31° SE 21:50:38 10° E visible
10 Apr - 23:41:20 10° SW 00:03:51 48° SSE 00:17:46 10° E visible
11 Apr - 02:12:54 10° WSW 02:31:44 48° SSW 02:41:59 10° ESE visible
11 Apr - 04:45:59 10° W 04:56:43 25° SW 05:03:29 10° SSE visible
11 Apr - 20:03:47 10° S 20:20:30 22° SE 20:35:12 10° E visible
11 Apr - 22:26:24 10° SW 22:49:09 43° SSE 23:04:58 10° E visible
12 Apr - 00:56:19 10° WSW 01:17:59 52° S 01:30:20 10° ESE visible
12 Apr - 03:29:07 10° W 03:44:32 37° SSW 03:53:16 10° SE visible
12 Apr - 06:05:39 10° WSW 06:07:49 11° SW 06:09:45 10° SW daylight
12 Apr - 18:56:48 10° SSE 19:06:30 13° SE 19:15:51 10° ESE visible
12 Apr - 21:12:46 10° SSW 21:34:18 36° SSE 21:51:19 10° E visible
12 Apr - 23:40:13 10° WSW 00:03:35 51° S 00:18:08 10° ESE visible
13 Apr - 02:12:15 10° W 02:31:34 47° SSW 02:42:15 10° SE visible
13 Apr - 04:46:01 10° W 04:56:21 22° SW 05:03:08 10° S visible
13 Apr - 20:00:50 10° S 20:19:39 27° SE 20:36:24 10° E visible
13 Apr - 22:25:02 10° SW 22:48:41 47° SSE 23:05:21 10° E visible
